Location: Unspecified
(47.9110°N, 14.3980°E)
Time: 10:41:59
(UTC+00:00)

Cosmos 1862 - Pass Details

Date: 06 August 2020
Orbit: 537 x 557 km, 82.5° (Epoch: 20 September)

Event Time Altitude Azimuth Distance (km) Brightness Sun altitude
Rises 20:06:55 0° 203° (SSW) 2,722 6.6 -14.0°
Reaches altitude 10° 20:09:08 10° 209° (SSW) 1,835 5.8 -14.3°
Maximum altitude 20:13:02 47° 283° (WNW) 751 4.4 -14.8°
Drops below altitude 10° 20:17:00 10° 358° (N) 1,856 6.7 -15.2°
Sets 20:19:15 0° 5° (N) 2,757 7.6 -15.5°
